TimeEDT,TemperatureF,Dew PointF,Humidity,Sea Level PressureIn,VisibilityMPH,Wind Direction,Wind SpeedMPH,Gust SpeedMPH,PrecipitationIn,Events,Conditions,WindDirDegrees,DateUTC
12:54 AM,51.1,50.0,96,29.74,8.0,NNW,8.1,-,0.09,Rain,Light Rain,340,2013-05-23 04:54:00
1:54 AM,51.1,50.0,96,29.74,4.0,North,8.1,-,0.04,Rain,Light Rain,350,2013-05-23 05:54:00
2:54 AM,52.0,50.0,93,29.74,5.0,North,12.7,-,0.07,Rain,Light Rain,10,2013-05-23 06:54:00
3:54 AM,51.1,50.0,96,29.75,3.0,North,15.0,-,0.02,Rain,Light Rain,360,2013-05-23 07:54:00
4:54 AM,48.0,46.0,93,29.79,5.0,North,16.1,27.6,0.03,Rain,Light Rain,10,2013-05-23 08:54:00
5:54 AM,45.0,44.1,97,29.82,4.0,North,20.7,26.5,0.03,Rain,Light Rain,10,2013-05-23 09:54:00
6:54 AM,43.0,42.1,97,29.86,6.0,North,19.6,26.5,0.03,Rain,Light Rain,360,2013-05-23 10:54:00
7:07 AM,42.8,42.8,100,29.85,2.0,North,17.3,24.2,0.01,Rain,Light Rain,360,2013-05-23 11:07:00
7:34 AM,42.8,41.0,93,29.86,3.0,North,13.8,23.0,0.03,Rain,Light Rain,360,2013-05-23 11:34:00
7:54 AM,42.1,41.0,96,29.89,9.0,North,18.4,-,0.04,Rain,Light Rain,350,2013-05-23 11:54:00
8:12 AM,42.8,41.0,93,29.89,10.0,North,12.7,26.5,0.00,Rain,Light Rain,350,2013-05-23 12:12:00
8:51 AM,41.0,41.0,100,29.92,2.5,NNW,15.0,23.0,0.00,Rain,Light Rain,340,2013-05-23 12:51:00
8:54 AM,41.0,39.9,96,29.93,2.5,NNW,19.6,24.2,0.01,Rain,Light Rain,340,2013-05-23 12:54:00
9:02 AM,41.0,39.2,93,29.92,5.0,North,17.3,25.3,0.00,Rain,Light Rain,350,2013-05-23 13:02:00
9:54 AM,39.9,39.0,97,29.97,4.0,North,15.0,-,0.01,Rain,Light Rain,350,2013-05-23 13:54:00
10:54 AM,39.9,39.0,97,29.99,8.0,North,13.8,24.2,0.04,Rain,Light Rain,360,2013-05-23 14:54:00
11:36 AM,41.0,41.0,100,29.99,10.0,North,13.8,19.6,0.01,Rain,Light Rain,350,2013-05-23 15:36:00
11:52 AM,39.2,39.2,100,30.00,10.0,North,16.1,24.2,0.01,Rain,Light Rain,350,2013-05-23 15:52:00
11:54 AM,39.9,39.0,97,30.02,10.0,NNW,18.4,26.5,0.01,Rain,Light Rain,340,2013-05-23 15:54:00
12:54 PM,41.0,39.9,96,30.04,10.0,NNW,16.1,25.3,0.00,Rain,Light Rain,340,2013-05-23 16:54:00
1:12 PM,44.6,39.2,81,30.03,10.0,North,12.7,25.3,0.00,Rain,Light Rain,350,2013-05-23 17:12:00
1:38 PM,42.8,35.6,76,30.04,10.0,NNW,13.8,27.6,0.00,,Overcast,340,2013-05-23 17:38:00
1:54 PM,42.1,33.1,70,30.06,10.0,North,18.4,26.5,0.00,,Overcast,350,2013-05-23 17:54:00
2:54 PM,45.0,33.1,63,30.06,10.0,North,15.0,26.5,N/A,,Overcast,350,2013-05-23 18:54:00
3:54 PM,46.9,32.0,56,30.07,10.0,North,18.4,26.5,N/A,,Overcast,350,2013-05-23 19:54:00
4:54 PM,48.9,30.9,50,30.08,10.0,North,19.6,26.5,N/A,,Clear,360,2013-05-23 20:54:00
5:54 PM,50.0,32.0,50,30.09,10.0,North,18.4,23.0,N/A,,Clear,350,2013-05-23 21:54:00
6:54 PM,51.1,33.1,50,30.10,10.0,North,12.7,-,N/A,,Clear,360,2013-05-23 22:54:00
7:54 PM,48.9,33.1,54,30.13,10.0,North,11.5,20.7,N/A,,Clear,350,2013-05-23 23:54:00
8:54 PM,46.9,33.1,59,30.15,10.0,NW,10.4,-,N/A,,Clear,320,2013-05-24 00:54:00
9:54 PM,44.1,34.0,68,30.18,10.0,NNW,10.4,-,N/A,,Clear,330,2013-05-24 01:54:00
10:54 PM,42.1,32.0,67,30.22,10.0,North,15.0,-,N/A,,Partly Cloudy,10,2013-05-24 02:54:00
11:54 PM,39.9,30.0,68,30.24,10.0,NNE,15.0,-,N/A,,Clear,20,2013-05-24 03:54:00